Regional Weather Roundup
Issued by NWS Charleston, SC

Current Version | Previous Version | Graphics & Text | Print | Product List | Glossary On
Versions: 1 2 3 4 5 6 7 8 9 10 11 12 13 14 15 16 17 18 19 20 21 22 23 24 25 26 27 28 29 30 31 32 33 34 35 36 37 38 39 40 41 42 43 44 45 46 47 48 49 50
000 ASUS42 KCHS 311227 RWRCHS REGIONAL WEATHER ROUNDUP NATIONAL WEATHER SERVICE CHARLESTON SC 800 AM EDT FRI JUL 31 2015 NOTE: "FAIR" INDICATES FEW OR NO CLOUDS BELOW 12,000 FEET WITH NO SIGNIFICANT WEATHER AND/OR OBSTRUCTIONS TO VISIBILITY. NOT ALL STATIONS ARE QUALITY CONTROLLED BY THE NATIONAL WEATHER SERVICE. USE DATA WITH CAUTION...ESPECIALLY DEWPOINT OBSERVATIONS. SCZ027-030-031-034>040-042>050-311300- ...SOUTHEAST SOUTH CAROLINA... CITY SKY/WX TMP DP RH WIND PRES REMARKS N CHARLESTON MOSUNNY 81 74 79 NW6 29.91S 6HR MIN TEMP: 78; 6HR MAX TEMP: 81; WATERFRONT PRK N/A 81 77 88 VRB3 29.88R MOUNT PLEASANT LGT RAIN 81 75 83 NW5 29.91S JOHNS ISLAND FAIR 84 77 79 NW5 29.90F HX 94 PINOPOLIS NOT AVBL MONCKS CORNER FAIR 81 73 78 CALM 29.92R SUMMERVILLE CLOUDY 77 77 100 CALM 29.93R BEAUFORT MCAS PTSUNNY 80 76 87 SW6 29.92S 6HR MIN TEMP: 78; 6HR MAX TEMP: 81; 6HR PCP: TRACE; BEAUFORT ARPT FAIR 81 79 94 CALM 29.92R FOG HILTON HEAD IS CLOUDY 79 79 100 SE5 29.94R WALTERBORO SUNNY 82 75 78 NW3 29.93S ALLENDALE PTSUNNY 79 75 89 CALM 29.93R ...SOUTHERN MIDLANDS AND PEE DEE... CITY SKY/WX TMP DP RH WIND PRES REMARKS GEORGETOWN NOT AVBL KINGSTREE NOT AVBL ORANGEBURG SUNNY 81 73 76 NE12 29.93R 6HR MIN TEMP: 75; 6HR MAX TEMP: 81; BARNWELL FAIR 79 77 94 E3 29.94S AIKEN PTSUNNY 77 68 73 NE15 29.98S MANNING FAIR 77 72 83 N8 29.93R COLUMBIA PTSUNNY 79 70 74 NE7 29.95R 6HR MIN TEMP: 79; 6HR MAX TEMP: 83; 6HR PCP: TRACE; SUMTER PTSUNNY 81 66 59 N12 29.92S 6HR MIN TEMP: 76; 6HR MAX TEMP: 81; FLORENCE MOSUNNY 80 68 66 N10 29.93R 6HR MIN TEMP: 78; 6HR MAX TEMP: 81; MYRTLE BEACH PTSUNNY 81 73 78 NW5 29.93S N MYRTLE BEACH PTSUNNY 79 76 90 CALM 29.92R 6HR MIN TEMP: 78; 6HR MAX TEMP: 81; 6HR PCP: 0.01; $$ GAZ063-065-086>088-099>101-113>116-118-119-134>141-150-311300- ...SOUTHEAST GEORGIA... CITY SKY/WX TMP DP RH WIND PRES REMARKS SAVANNAH ARPT PTSUNNY 79 75 87 SW7 29.93S 6HR MIN TEMP: 78; 6HR MAX TEMP: 80; HUNTER AAF PTSUNNY 79 78 99 SW6 29.91 6HR MIN TEMP: 79; 6HR MAX TEMP: 81; FORT STEWART PTSUNNY 79 75 88 W6 29.92R 6HR MIN TEMP: 78; 6HR MAX TEMP: 81; STATESBORO MOSUNNY 80 80 100 CALM 29.93S SYLVANIA SUNNY 82 79 91 W5 29.94S HX 91 CLAXTON PTSUNNY 79 75 89 SW3 29.94S ...CSRA...CENTRAL AND FAR SOUTHEAST GEORGIA... CITY SKY/WX TMP DP RH WIND PRES REMARKS THOMSON SUNNY 81 77 86 NE7 29.99R AUGUSTA-BUSH MOSUNNY 78 76 93 CALM 29.92R 6HR MIN TEMP: 75; 6HR MAX TEMP: 78; AUGUSTA-DANIEL MOSUNNY 80 74 81 NE5 29.95R SWAINSBORO FAIR N/A N/A N/A SW5 29.95R VIDALIA SUNNY 77 75 94 SW5 29.94S EASTMAN FAIR 78 78 100 S3 29.97R HAZLEHURST FAIR 81 79 94 SW3 29.94R HX 90 ALMA CLOUDY 76 75 97 SW3 29.94R FOG 6HR MIN TEMP: 76; 6HR MAX TEMP: 78; WAYCROSS PTSUNNY 80 80 98 SW3 29.95R HX 90 JESUP CLOUDY 79 79 100 W3 29.95S BAXLEY CLOUDY 79 77 94 CALM 29.94S FOG BRUNSWICK PTSUNNY 79 77 94 SW7 29.95S SAINT SIMONS PTSUNNY 78 76 93 SW6 29.94R 6HR MIN TEMP: 77; 6HR MAX TEMP: 80; $$ SCZ027-028-034-036>038-045-046-048>050-GAZ119-141-311300- ...LAKE AND SUPPLEMENTAL COASTAL OBSERVATIONS... STATION/POSITION TIME TEMP WIND PRES WAVE SWELL AIR SEA DIR/SP/G HT/PER HT/PER/DIR (UTC) (F) (DEG/KT/KT) (MB) (FT/S) (FT/S/D) UPR LAKE MARION NOT AVBL WINYAH BAY 1145 78 300/ 4 1012.0R LAKE MURRAY 1200 78 20/ 2/ 5 1013.9R ACE BASIN NERRS NOT AVBL FORT PULASKI 1200 80 86 220/ 2/ 4 1013.9R SAPELO ISLAND 1200 80 240/ 8 1014.0R $$ ANZ835-935-AMZ111-154-330-350-352-354-370-450-454-472-311300- ...C-MAN AND BUOY OBSERVATIONS... STATION/POSITION TIME TEMP WIND PRES WAVE SWELL AIR SEA DIR/SP/G HT/PER HT/PER/DIR (UTC) (F) (DEG/KT/KT) (MB) (FT/S) (FT/S/D) BUOY 41004 1150 83 84 230/ 19/ 23 1011.9R 3/ 5 2/ 8 BUOY 41008 1150 81 83 250/ 12/ 14 1013.4R 2/ 4 2/140/ 6 FOLLY BEACH CMAN 1200 81 300/ 5/ 8 1012.6S CAPERS NEARSHORE 1108 82 280/ 10/ 14 1012.3R FRIPP NEARSHORE 1100 84 260/ 10/ 12 1012.4R STATION/POSITION TIME TEMP WIND PRES WAVE SWELL AIR SEA DIR/SP/G HT/PER HT/PER/DIR (UTC) (F) (DEG/KT/KT) (MB) (FT/S) (FT/S/D) 5E ST. MARYS GA 1121 83 N/A 2/ 7 FRYING PAN BUOY 1150 84 84 280/ 12/ 14 1012.8R 3/ 8 3/140/ 8 BUOY 41025 1150 82 85 10/ 6/ 8 1011.6R 4/ 8 3/150/ 8 CAPE LOOKOUT NC 1200 81 320/ 7/ 8 1011.8R BUOY 41002 1150 82 81 220/ 19/ 23 1014.4R 10/ 9 BUOY 41010 1120 79 84 200/ 23/ 25 1015.6R ST AUGUSTINE FL 1200 78 82 220/ 8/ 10 1015.4R $$

USA.gov is the U.S. government's official web portal to all federal, state and local government web resources and services.